User: anonymous   Login
Location: Unspecified
(0.0000°N, 0.0000°E)
Time: 07:23:47
(UTC+00:00)
Language:

NAVSTAR 64 (USA 206) - Orbit

View from above orbital plane
View from above orbital plane
View from above satellite
View from above satellite

Ground track
Ground track

The orbit data is extracted from the following two-line orbital elements,

1 35752U 09043A   15144.28175162  .00000010  00000-0  00000+0 0  9995
2 35752 054.2321 190.1196 0040509 018.2494 094.7085 02.00576481 42275
Epoch (UTC): 24 May 2015 06:45:43
Eccentricity: 0.0040509
inclination: 54.2321°
perigee height: 20073 km
apogee height: 20288 km
right ascension of ascending node: 190.1196°
argument of perigee: 18.2494°
revolutions per day: 2.00576481
mean anomaly at epoch: 94.7085°
orbit number at epoch: 4227

The dashed part of the orbit path shows where the satellite is in the earth's shadow,  

DLR